User: anonymous   Login
Location: Caltech
(34.1382°N, 118.1253°W)
Time: 07:09:36
(UTC-07:00)
Language:

Cosmos 1484 Rocket - Orbit

View from above orbital plane
View from above orbital plane
View from above satellite
View from above satellite

Ground track
Ground track

The orbit data is extracted from the following two-line orbital elements,

1 14208U 83075B   14303.09316038  .00004024  00000-0  26395-3 0  1629
2 14208 097.4124 335.1227 0041623 197.9844 161.9914 15.07508755702525
Epoch (UTC): 30 October 2014 02:14:09
Eccentricity: 0.0041623
inclination: 97.4124°
perigee height: 515 km
apogee height: 572 km
right ascension of ascending node: 335.1227°
argument of perigee: 197.9844°
revolutions per day: 15.07508755
mean anomaly at epoch: 161.9914°
orbit number at epoch: 70252

The dashed part of the orbit path shows where the satellite is in the earth's shadow,  

DLR